Rifle, CO

4:10 PM MDT on April 30, 2017 (GMT -0600)
Garfield County Regional

Weather History for KRIL - October, 2010

Change the Weather History Date:

Sunday, October 31, 2010

  Actual Average Record
Temperature  
Mean Temperature 45 °F 43 °F  
Max Temperature 57 °F 57 °F 78 °F (1950)
Min Temperature 33 °F 28 °F 7 °F (1991)
Degree Days  
Heating Degree Days 20 22  
Month to date heating degree days 499  
Since 1 July heating degree days 644  
Cooling Degree Days 0 0  
Month to date cooling degree days 0  
Year to date cooling degree days 541  
Moisture  
Dew Point 33 °F    
Average Humidity 71    
Maximum Humidity 96    
Minimum Humidity 36    
Precipitation  
Precipitation 0.00 in 0.07 in 0.67 in (1992)
Month to date precipitation 1.89  
Year to date precipitation 12.36  
Sea Level Pressure  
Sea Level Pressure 30.14 in    
Wind  
Wind Speed 3 mph (WSW)    
Max Wind Speed 15 mph    
Max Gust Speed -    
Visibility 10 miles    
Events      
T = Trace of Precipitation, MM = Missing Value Source: NWS Daily Summary

Daily Weather History Graph

Daily Weather History Graph

Search for Another Location

Airport or City:

Trip Planner

Search our weather history database for the weather conditions in past years. The results will help you decide how hot, cold, wet, or windy it might be!

Date:

Astronomy

Oct. 31, 2010 Rise Set
Actual Time 7:38 AM MDT 6:10 PM MDT
Civil Twilight 7:10 AM MDT 6:38 PM MDT
Nautical Twilight 6:38 AM MDT 7:09 PM MDT
Astronomical Twilight 6:07 AM MDT 7:41 PM MDT
Moon 1:09 AM MDT (10/31) 2:47 PM MDT (10/31)
Length of Visible Light 11h 27m
Length of Day
10h 32m
Last Quarter, 36% of the Moon is Illuminated
Oct 31
Last Quarter
Nov 5
New
Nov 13
First Quarter
Nov 21
Full
Nov 28
Last Quarter

Hourly Weather History & Observations

Time (MDT) Temp. Windchill Dew Point Humidity Pressure Visibility Wind Dir Wind Speed Gust Speed Precip Events Conditions
12:53 AM 37.9 °F 35.5 °F 36.0 °F 93% 30.03 in 10.0 mi SSW 3.5 mph - N/A   Partly Cloudy
1:53 AM 37.9 °F 35.5 °F 36.0 °F 93% 30.03 in 10.0 mi Variable 3.5 mph - N/A   Mostly Cloudy
2:53 AM 37.0 °F - 34.0 °F 89% 30.05 in 10.0 mi Calm Calm - N/A   Mostly Cloudy
3:53 AM 36.0 °F 32.1 °F 34.0 °F 93% 30.08 in 10.0 mi SSW 4.6 mph - N/A   Clear
4:53 AM 36.0 °F - 33.1 °F 89% 30.08 in 10.0 mi Calm Calm - N/A   Clear
5:53 AM 35.1 °F - 32.0 °F 89% 30.10 in 10.0 mi Calm Calm - N/A   Clear
6:53 AM 34.0 °F - 32.0 °F 92% 30.13 in 10.0 mi Calm Calm - N/A   Scattered Clouds
7:53 AM 33.1 °F - 30.9 °F 92% 30.15 in 10.0 mi Calm Calm - N/A   Clear
8:53 AM 34.0 °F 31.0 °F 33.1 °F 96% 30.18 in 10.0 mi SSW 3.5 mph - N/A   Clear
9:53 AM 39.0 °F - 35.1 °F 86% 30.21 in 10.0 mi Calm Calm - N/A   Clear
10:53 AM 43.0 °F - 36.0 °F 76% 30.18 in 10.0 mi Calm Calm - N/A   Clear
11:53 AM 46.9 °F - 35.1 °F 63% 30.17 in 10.0 mi WSW 3.5 mph - N/A   Clear
12:53 PM 52.0 °F - 33.1 °F 49% 30.14 in 10.0 mi West 4.6 mph - N/A   Clear
1:53 PM 54.0 °F - 33.1 °F 45% 30.11 in 10.0 mi West 5.8 mph - N/A   Overcast
2:53 PM 57.0 °F - 30.0 °F 36% 30.09 in 10.0 mi WNW 15.0 mph - N/A   Scattered Clouds
3:53 PM 55.9 °F - 30.0 °F 37% 30.10 in 10.0 mi West 12.7 mph - N/A   Partly Cloudy
4:53 PM 55.9 °F - 28.9 °F 36% 30.08 in 10.0 mi WSW 6.9 mph - N/A   Clear
5:53 PM 54.0 °F - 30.9 °F 41% 30.11 in 10.0 mi West 9.2 mph - N/A   Partly Cloudy
6:53 PM 50.0 °F - 34.0 °F 54% 30.15 in 10.0 mi Calm Calm - N/A   Clear
7:53 PM 45.0 °F 39.7 °F 33.1 °F 63% 30.19 in 10.0 mi SSE 10.4 mph - N/A   Clear
8:53 PM 42.1 °F - 32.0 °F 67% 30.23 in 10.0 mi Calm Calm - N/A   Partly Cloudy
9:53 PM 42.1 °F - 33.1 °F 70% 30.24 in 10.0 mi Calm Calm - N/A   Overcast
10:53 PM 43.0 °F - 34.0 °F 71% 30.24 in 10.0 mi Calm Calm - N/A   Overcast
11:53 PM 42.1 °F 40.2 °F 34.0 °F 73% 30.23 in 10.0 mi NE 3.5 mph - N/A   Overcast